JBU2849 KFLL-MDSD

Flight info

Callsign JBU2849
Flight time 1h 43m
Altitude 37000
Route SNAPR2 SUMAC Y443 RUMFO Y441 JUELE UW38 PTA DCT KODIX KODIX2G
Aircraft A320/M-SDE3FGHIRWY/LB1

Departure

Time 2026-05-04 18:38
Airport Fort Lauderdale Hollywood International Airport (KFLL)

Arrival

Time 2026-05-04 20:22
Airport Las Américas International Airport (MDSD)
Time Latitude Longitude Altitude Speed Heading
2026-05-04 17:41 26.07281 -80.14701 16 ft 0 kts 44°
2026-05-04 18:24 26.07267 -80.14716 17 ft 4 kts 44°
2026-05-04 18:25 26.07247 -80.14737 18 ft 4 kts 44°
2026-05-04 18:25 26.07232 -80.14754 18 ft 4 kts 32°
2026-05-04 18:25 26.07217 -80.14758 18 ft 4 kts 299°
2026-05-04 18:25 26.07212 -80.14731 17 ft 3 kts 274°
2026-05-04 18:26 26.07212 -80.14726 17 ft 0 kts 274°
2026-05-04 18:31 26.07211 -80.14748 17 ft 7 kts 259°
2026-05-04 18:31 26.07183 -80.14789 16 ft 5 kts 224°
2026-05-04 18:31 26.07148 -80.14828 16 ft 10 kts 225°
2026-05-04 18:31 26.07124 -80.14888 16 ft 7 kts 274°
2026-05-04 18:32 26.07150 -80.14930 16 ft 8 kts 319°
2026-05-04 18:32 26.07166 -80.14992 16 ft 9 kts 244°
2026-05-04 18:32 26.07129 -80.15036 16 ft 7 kts 224°
2026-05-04 18:32 26.07088 -80.15082 16 ft 10 kts 226°
2026-05-04 18:33 26.07035 -80.15127 16 ft 12 kts 194°
2026-05-04 18:33 26.06940 -80.15129 16 ft 13 kts 180°
2026-05-04 18:33 26.06853 -80.15131 16 ft 12 kts 180°
2026-05-04 18:33 26.06777 -80.15131 16 ft 10 kts 180°
2026-05-04 18:34 26.06714 -80.15137 16 ft 8 kts 207°
2026-05-04 18:34 26.06695 -80.15202 16 ft 15 kts 271°
2026-05-04 18:34 26.06696 -80.15353 16 ft 22 kts 270°
2026-05-04 18:34 26.06697 -80.15515 16 ft 20 kts 270°
2026-05-04 18:35 26.06698 -80.15665 16 ft 14 kts 270°
2026-05-04 18:35 26.06699 -80.15760 16 ft 8 kts 270°
2026-05-04 18:35 26.06697 -80.15784 16 ft 0 kts 261°
2026-05-04 18:36 26.06697 -80.15787 16 ft 2 kts 260°
2026-05-04 18:36 26.06685 -80.15811 17 ft 6 kts 227°
2026-05-04 18:37 26.06628 -80.15823 17 ft 9 kts 176°
2026-05-04 18:37 26.06587 -80.15797 18 ft 7 kts 103°
2026-05-04 18:37 26.06588 -80.15775 19 ft 0 kts 86°
2026-05-04 18:37 26.06588 -80.15767 19 ft 7 kts 86°
2026-05-04 18:38 26.06587 -80.15422 22 ft 81 kts 90°
2026-05-04 18:38 26.06582 -80.14575 48 ft 134 kts 90°
2026-05-04 18:38 26.06576 -80.13415 357 ft 155 kts 89°
2026-05-04 18:38 26.06596 -80.12227 1110 ft 152 kts 81°
2026-05-04 18:39 26.06621 -80.11020 1575 ft 166 kts 83°
2026-05-04 18:39 26.06650 -80.09668 1812 ft 188 kts 85°
2026-05-04 18:39 26.06674 -80.08122 2063 ft 211 kts 85°
2026-05-04 18:39 26.06694 -80.06416 2439 ft 230 kts 85°
2026-05-04 18:40 26.06713 -80.04552 2966 ft 250 kts 86°
2026-05-04 18:40 26.06730 -80.02580 3789 ft 258 kts 85°
2026-05-04 18:40 26.06743 -80.00546 4708 ft 266 kts 86°
2026-05-04 18:40 26.06739 -79.98446 5546 ft 277 kts 87°
2026-05-04 18:41 26.06717 -79.96270 6397 ft 285 kts 89°
2026-05-04 18:41 26.06688 -79.94037 7161 ft 292 kts 90°
2026-05-04 18:41 26.06655 -79.91751 7894 ft 300 kts 90°
2026-05-04 18:41 26.06624 -79.89396 8674 ft 309 kts 91°
2026-05-04 18:42 26.06595 -79.86985 9504 ft 315 kts 91°
2026-05-04 18:42 26.06569 -79.84521 10223 ft 322 kts 91°
2026-05-04 18:42 26.06405 -79.82010 10685 ft 335 kts 100°
2026-05-04 18:42 26.06004 -79.79369 10862 ft 358 kts 101°
2026-05-04 18:43 26.05566 -79.76610 11176 ft 373 kts 101°
2026-05-04 18:43 26.05109 -79.73746 11751 ft 379 kts 101°
2026-05-04 18:43 26.04649 -79.70842 12360 ft 384 kts 101°
2026-05-04 18:43 26.04187 -79.67902 12981 ft 388 kts 101°
2026-05-04 18:44 26.03719 -79.64930 13595 ft 392 kts 102°
2026-05-04 18:44 26.03361 -79.62952 13969 ft 394 kts 104°
2026-05-04 18:44 26.02486 -79.58963 14685 ft 399 kts 107°
2026-05-04 18:44 26.01752 -79.55972 15215 ft 402 kts 108°
2026-05-04 18:45 26.00994 -79.52964 15728 ft 406 kts 108°
2026-05-04 18:45 26.00234 -79.49925 16252 ft 410 kts 108°
2026-05-04 18:45 25.99482 -79.46858 16754 ft 413 kts 108°
2026-05-04 18:45 25.98749 -79.43791 17263 ft 417 kts 107°
2026-05-04 18:46 25.98013 -79.40660 17755 ft 421 kts 107°
2026-05-04 18:46 25.97189 -79.37526 18235 ft 422 kts 114°
2026-05-04 18:46 25.96135 -79.34463 18693 ft 425 kts 114°
2026-05-04 18:46 25.95068 -79.31385 19142 ft 428 kts 114°
2026-05-04 18:47 25.93991 -79.28291 19595 ft 431 kts 114°
2026-05-04 18:47 25.92907 -79.25176 20053 ft 434 kts 114°
2026-05-04 18:47 25.91814 -79.22041 20501 ft 437 kts 114°
2026-05-04 18:47 25.90712 -79.18888 20953 ft 439 kts 114°
2026-05-04 18:48 25.89600 -79.15709 21383 ft 442 kts 114°
2026-05-04 18:48 25.88486 -79.12516 21800 ft 445 kts 114°
2026-05-04 18:48 25.87368 -79.09303 22230 ft 448 kts 114°
2026-05-04 18:48 25.86240 -79.06069 22650 ft 451 kts 114°
2026-05-04 18:49 25.85100 -79.02806 23071 ft 453 kts 114°
2026-05-04 18:49 25.83956 -78.99540 23499 ft 456 kts 114°
2026-05-04 18:49 25.82801 -78.96253 23844 ft 458 kts 114°
2026-05-04 18:49 25.81638 -78.92952 24182 ft 460 kts 114°
2026-05-04 18:50 25.80468 -78.89631 24513 ft 463 kts 114°
2026-05-04 18:50 25.79309 -78.86337 24835 ft 466 kts 114°
2026-05-04 18:50 25.78125 -78.82978 25158 ft 469 kts 114°
2026-05-04 18:50 25.76934 -78.79597 25485 ft 472 kts 114°
2026-05-04 18:51 25.75736 -78.76195 25810 ft 475 kts 114°
2026-05-04 18:51 25.74493 -78.72796 26125 ft 476 kts 118°
2026-05-04 18:51 25.72894 -78.69588 26437 ft 474 kts 127°
2026-05-04 18:51 25.71038 -78.66559 26748 ft 476 kts 128°
2026-05-04 18:52 25.69159 -78.63512 27071 ft 479 kts 128°
2026-05-04 18:52 25.67274 -78.60452 27395 ft 482 kts 128°
2026-05-04 18:52 25.65382 -78.57376 27728 ft 485 kts 128°
2026-05-04 18:52 25.63473 -78.54266 28066 ft 488 kts 128°
2026-05-04 18:53 25.61563 -78.51151 28414 ft 491 kts 128°
2026-05-04 18:53 25.59643 -78.48015 28737 ft 494 kts 127°
2026-05-04 18:53 25.57955 -78.44660 29046 ft 501 kts 117°
2026-05-04 18:53 25.56723 -78.41026 29344 ft 507 kts 108°
2026-05-04 18:54 25.55775 -78.37249 29663 ft 510 kts 107°
2026-05-04 18:54 25.54815 -78.33455 29962 ft 513 kts 108°
2026-05-04 18:54 25.53850 -78.29691 30231 ft 516 kts 108°
2026-05-04 18:54 25.52863 -78.25862 30506 ft 518 kts 108°
2026-05-04 18:55 25.51869 -78.22020 30792 ft 520 kts 108°
2026-05-04 18:55 25.49893 -78.14344 31619 ft 517 kts 108°
2026-05-04 18:55 25.48911 -78.10520 32042 ft 516 kts 108°
2026-05-04 18:56 25.47931 -78.06706 32470 ft 514 kts 108°
2026-05-04 18:56 25.46950 -78.02901 32771 ft 514 kts 109°
2026-05-04 18:56 25.45972 -77.99108 32944 ft 513 kts 109°
2026-05-04 18:56 25.44991 -77.95306 32976 ft 512 kts 109°
2026-05-04 18:57 25.43037 -77.87749 32997 ft 510 kts 109°
2026-05-04 18:57 25.41072 -77.80201 32999 ft 510 kts 109°
2026-05-04 18:58 25.39107 -77.72662 32999 ft 510 kts 109°
2026-05-04 18:58 25.37150 -77.65132 32996 ft 510 kts 109°
2026-05-04 18:59 25.35185 -77.57602 32994 ft 510 kts 110°
2026-05-04 18:59 25.33218 -77.50116 33000 ft 510 kts 110°
2026-05-04 19:00 25.31237 -77.42583 33016 ft 510 kts 110°
2026-05-04 19:00 25.28438 -77.35438 33020 ft 499 kts 128°
2026-05-04 19:01 25.24128 -77.29693 33025 ft 481 kts 143°
2026-05-04 19:01 25.19262 -77.24616 33024 ft 481 kts 143°
2026-05-04 19:02 25.14403 -77.19520 33155 ft 482 kts 143°
2026-05-04 19:02 25.11978 -77.16970 33619 ft 480 kts 143°
2026-05-04 19:02 25.09562 -77.14435 34062 ft 479 kts 143°
2026-05-04 19:03 25.07149 -77.11911 34411 ft 477 kts 143°
2026-05-04 19:03 25.04738 -77.09397 34711 ft 478 kts 143°
2026-05-04 19:03 25.02319 -77.06874 35004 ft 478 kts 144°
2026-05-04 19:03 24.99898 -77.04348 35291 ft 478 kts 144°
2026-05-04 19:04 24.97482 -77.01827 35584 ft 479 kts 144°
2026-05-04 19:04 24.95097 -76.99337 35849 ft 479 kts 144°
2026-05-04 19:04 24.92669 -76.96807 36115 ft 479 kts 144°
2026-05-04 19:04 24.90249 -76.94288 36386 ft 479 kts 144°
2026-05-04 19:05 24.87824 -76.91767 36652 ft 479 kts 145°
2026-05-04 19:05 24.85400 -76.89245 36893 ft 480 kts 145°
2026-05-04 19:05 24.80515 -76.84174 37008 ft 485 kts 145°
2026-05-04 19:06 24.75590 -76.79062 37008 ft 486 kts 145°
2026-05-04 19:06 24.70652 -76.73954 37006 ft 487 kts 145°
2026-05-04 19:07 24.65738 -76.68870 37012 ft 488 kts 145°
2026-05-04 19:07 24.60797 -76.63747 37007 ft 488 kts 145°
2026-05-04 19:08 24.55845 -76.58628 37011 ft 489 kts 145°
2026-05-04 19:08 24.50883 -76.53511 37016 ft 489 kts 145°
2026-05-04 19:09 24.45922 -76.48394 37019 ft 489 kts 145°
2026-05-04 19:09 24.40961 -76.43288 37023 ft 489 kts 145°
2026-05-04 19:10 24.35997 -76.38182 36990 ft 489 kts 144°
2026-05-04 19:10 24.31026 -76.33072 37002 ft 490 kts 144°
2026-05-04 19:11 24.26045 -76.27962 37011 ft 491 kts 144°
2026-05-04 19:11 24.21056 -76.22848 37020 ft 491 kts 144°
2026-05-04 19:12 24.13608 -76.15208 37023 ft 491 kts 144°
2026-05-04 19:13 24.08608 -76.10105 37022 ft 491 kts 144°
2026-05-04 19:13 24.04452 -76.05863 37026 ft 492 kts 144°
2026-05-04 19:14 23.99444 -76.00760 37025 ft 492 kts 144°
2026-05-04 19:14 23.94432 -75.95660 37031 ft 492 kts 144°
2026-05-04 19:15 23.89425 -75.90566 37025 ft 492 kts 144°
2026-05-04 19:15 23.83565 -75.84606 37029 ft 492 kts 144°
2026-05-04 19:16 23.79396 -75.80368 37037 ft 492 kts 144°
2026-05-04 19:16 23.74381 -75.75279 37025 ft 492 kts 144°
2026-05-04 19:17 23.69362 -75.70192 36993 ft 492 kts 144°
2026-05-04 19:17 23.64370 -75.65135 36999 ft 493 kts 145°
2026-05-04 19:18 23.59328 -75.60045 37018 ft 494 kts 144°
2026-05-04 19:18 23.54279 -75.54943 37025 ft 495 kts 145°
2026-05-04 19:19 23.49220 -75.49846 37028 ft 495 kts 145°
2026-05-04 19:19 23.44167 -75.44752 37031 ft 495 kts 145°
2026-05-04 19:20 23.39108 -75.39664 37027 ft 495 kts 144°
2026-05-04 19:20 23.34051 -75.34571 37008 ft 495 kts 144°
2026-05-04 19:21 23.28996 -75.29482 37029 ft 495 kts 144°
2026-05-04 19:21 23.23933 -75.24405 37034 ft 494 kts 144°
2026-05-04 19:22 23.18868 -75.19340 37034 ft 494 kts 144°
2026-05-04 19:22 23.13834 -75.14317 37031 ft 494 kts 144°
2026-05-04 19:23 23.08877 -75.09123 37031 ft 501 kts 136°
2026-05-04 19:23 23.04746 -75.02947 37022 ft 506 kts 131°
2026-05-04 19:24 23.00703 -74.96694 37000 ft 506 kts 131°
2026-05-04 19:24 22.96640 -74.90446 37015 ft 506 kts 131°
2026-05-04 19:25 22.92575 -74.84220 37023 ft 506 kts 131°
2026-05-04 19:25 22.88510 -74.77987 37027 ft 506 kts 131°
2026-05-04 19:26 22.84476 -74.71783 37029 ft 506 kts 131°
2026-05-04 19:26 22.80415 -74.65546 37031 ft 506 kts 131°
2026-05-04 19:27 22.76342 -74.59322 37031 ft 506 kts 131°
2026-05-04 19:27 22.72273 -74.53111 37027 ft 506 kts 131°
2026-05-04 19:28 22.68203 -74.46888 37030 ft 506 kts 131°
2026-05-04 19:28 22.64138 -74.40665 37011 ft 506 kts 131°
2026-05-04 19:29 22.60092 -74.34492 37018 ft 505 kts 131°
2026-05-04 19:29 22.56017 -74.28303 37029 ft 504 kts 131°
2026-05-04 19:30 22.51950 -74.22125 37031 ft 504 kts 131°
2026-05-04 19:30 22.47884 -74.15947 37032 ft 504 kts 131°
2026-05-04 19:31 22.43816 -74.09777 37031 ft 503 kts 131°
2026-05-04 19:31 22.39748 -74.03618 37026 ft 503 kts 131°
2026-05-04 19:32 22.35678 -73.97464 37023 ft 503 kts 131°
2026-05-04 19:32 22.31603 -73.91324 37030 ft 502 kts 131°
2026-05-04 19:33 22.27536 -73.85187 37012 ft 502 kts 131°
2026-05-04 19:33 22.23475 -73.79067 37028 ft 501 kts 131°
2026-05-04 19:34 22.19446 -73.72988 37030 ft 500 kts 131°
2026-05-04 19:34 22.15392 -73.66884 37029 ft 500 kts 131°
2026-05-04 19:35 22.11342 -73.60791 37034 ft 500 kts 131°
2026-05-04 19:35 22.07289 -73.54703 37024 ft 499 kts 131°
2026-05-04 19:36 22.03231 -73.48629 37023 ft 499 kts 131°
2026-05-04 19:36 21.99173 -73.42558 37020 ft 499 kts 131°
2026-05-04 19:37 21.95116 -73.36492 37022 ft 499 kts 131°
2026-05-04 19:37 21.91058 -73.30431 37005 ft 499 kts 131°
2026-05-04 19:38 21.86999 -73.24376 37012 ft 498 kts 130°
2026-05-04 19:38 21.82938 -73.18323 37023 ft 498 kts 130°
2026-05-04 19:39 21.78905 -73.12319 37020 ft 497 kts 130°
2026-05-04 19:39 21.74852 -73.06285 37019 ft 497 kts 130°
2026-05-04 19:40 21.70801 -73.00254 37020 ft 497 kts 130°
2026-05-04 19:40 21.66737 -72.94232 37013 ft 497 kts 130°
2026-05-04 19:41 21.62680 -72.88222 37021 ft 497 kts 130°
2026-05-04 19:41 21.58621 -72.82208 37014 ft 497 kts 130°
2026-05-04 19:42 21.54586 -72.76239 37021 ft 497 kts 130°
2026-05-04 19:42 21.50522 -72.70241 37009 ft 496 kts 130°
2026-05-04 19:43 21.46464 -72.64251 37021 ft 496 kts 130°
2026-05-04 19:43 21.42415 -72.58267 37019 ft 495 kts 130°
2026-05-04 19:44 21.38362 -72.52287 37020 ft 495 kts 130°
2026-05-04 19:44 21.34302 -72.46323 37020 ft 494 kts 130°
2026-05-04 19:45 21.30245 -72.40365 37019 ft 494 kts 130°
2026-05-04 19:45 21.26197 -72.34412 37022 ft 494 kts 130°
2026-05-04 19:46 21.22140 -72.28472 37017 ft 494 kts 130°
2026-05-04 19:46 21.18081 -72.22532 37015 ft 494 kts 130°
2026-05-04 19:47 21.14053 -72.16630 37007 ft 493 kts 130°
2026-05-04 19:47 21.09999 -72.10698 37014 ft 493 kts 130°
2026-05-04 19:48 21.05943 -72.04784 37016 ft 493 kts 130°
2026-05-04 19:48 21.01894 -71.98869 37012 ft 492 kts 130°
2026-05-04 19:49 20.97841 -71.92962 37016 ft 492 kts 130°
2026-05-04 19:49 20.93784 -71.87060 37009 ft 492 kts 130°
2026-05-04 19:50 20.89733 -71.81156 37008 ft 492 kts 130°
2026-05-04 19:50 20.85667 -71.75257 37010 ft 492 kts 130°
2026-05-04 19:51 20.81601 -71.69368 37012 ft 493 kts 130°
2026-05-04 19:51 20.77537 -71.63470 36994 ft 492 kts 130°
2026-05-04 19:52 20.73476 -71.57583 36999 ft 492 kts 130°
2026-05-04 19:52 20.69409 -71.51697 37002 ft 492 kts 130°
2026-05-04 19:53 20.65342 -71.45830 37005 ft 491 kts 130°
2026-05-04 19:53 20.61304 -71.39995 37006 ft 491 kts 130°
2026-05-04 19:54 20.57239 -71.34127 37005 ft 491 kts 130°
2026-05-04 19:54 20.53168 -71.28266 37002 ft 491 kts 130°
2026-05-04 19:55 20.49099 -71.22413 37004 ft 491 kts 130°
2026-05-04 19:55 20.45028 -71.16553 37000 ft 491 kts 130°
2026-05-04 19:56 20.40653 -71.11021 36997 ft 484 kts 142°
2026-05-04 19:56 20.35422 -71.06560 36994 ft 481 kts 147°
2026-05-04 19:57 20.30181 -71.02182 36992 ft 481 kts 146°
2026-05-04 19:57 20.24908 -70.97772 36995 ft 482 kts 146°
2026-05-04 19:58 20.19634 -70.93367 36991 ft 482 kts 146°
2026-05-04 19:58 20.14355 -70.88966 36991 ft 482 kts 146°
2026-05-04 19:58 20.11708 -70.86762 36761 ft 481 kts 146°
2026-05-04 19:59 20.09964 -70.85311 36603 ft 481 kts 146°
2026-05-04 19:59 20.07334 -70.83121 36338 ft 480 kts 146°
2026-05-04 19:59 20.04699 -70.80925 35905 ft 480 kts 146°
2026-05-04 19:59 20.02051 -70.78720 35035 ft 486 kts 146°
2026-05-04 20:00 19.99372 -70.76494 34225 ft 491 kts 145°
2026-05-04 20:00 19.96659 -70.74246 33238 ft 497 kts 145°
2026-05-04 20:00 19.93003 -70.71215 32015 ft 501 kts 145°
2026-05-04 20:00 19.91186 -70.69708 31621 ft 499 kts 145°
2026-05-04 20:01 19.88458 -70.67442 30930 ft 497 kts 145°
2026-05-04 20:01 19.85772 -70.65209 30312 ft 493 kts 144°
2026-05-04 20:01 19.83077 -70.62969 29621 ft 491 kts 144°
2026-05-04 20:01 19.80400 -70.60746 28995 ft 485 kts 144°
2026-05-04 20:02 19.77752 -70.58551 28370 ft 480 kts 144°
2026-05-04 20:02 19.75114 -70.56406 27753 ft 474 kts 146°
2026-05-04 20:02 19.72436 -70.54399 27169 ft 468 kts 148°
2026-05-04 20:02 19.69726 -70.52519 26582 ft 463 kts 150°
2026-05-04 20:03 19.67005 -70.50717 26049 ft 457 kts 151°
2026-05-04 20:03 19.64313 -70.48956 25490 ft 453 kts 151°
2026-05-04 20:03 19.61649 -70.47194 24942 ft 449 kts 150°
2026-05-04 20:03 19.59025 -70.45429 24421 ft 444 kts 150°
2026-05-04 20:04 19.56478 -70.43685 23918 ft 439 kts 149°
2026-05-04 20:04 19.53903 -70.41900 23383 ft 434 kts 149°
2026-05-04 20:04 19.51392 -70.40154 22861 ft 429 kts 150°
2026-05-04 20:04 19.48917 -70.38437 22396 ft 423 kts 149°
2026-05-04 20:05 19.46497 -70.36765 21915 ft 418 kts 150°
2026-05-04 20:05 19.44064 -70.35091 21422 ft 415 kts 150°
2026-05-04 20:05 19.41645 -70.33429 20928 ft 412 kts 150°
2026-05-04 20:05 19.39242 -70.31778 20419 ft 409 kts 150°
2026-05-04 20:06 19.36859 -70.30143 19921 ft 407 kts 150°
2026-05-04 20:06 19.34486 -70.28518 19399 ft 405 kts 150°
2026-05-04 20:06 19.32121 -70.26897 18872 ft 404 kts 150°
2026-05-04 20:06 19.29765 -70.25280 18333 ft 403 kts 150°
2026-05-04 20:07 19.27408 -70.23663 17728 ft 402 kts 150°
2026-05-04 20:07 19.25091 -70.22075 17152 ft 400 kts 150°
2026-05-04 20:07 19.22737 -70.20464 16598 ft 396 kts 150°
2026-05-04 20:07 19.20459 -70.18908 16076 ft 393 kts 150°
2026-05-04 20:08 19.18192 -70.17358 15850 ft 381 kts 149°
2026-05-04 20:08 19.16011 -70.15863 15730 ft 366 kts 149°
2026-05-04 20:08 19.13913 -70.14412 15606 ft 354 kts 148°
2026-05-04 20:08 19.12029 -70.12790 15479 ft 342 kts 143°
2026-05-04 20:09 19.10241 -70.11188 15056 ft 333 kts 143°
2026-05-04 20:09 19.08487 -70.09622 14510 ft 328 kts 143°
2026-05-04 20:09 19.06758 -70.08080 13984 ft 322 kts 143°
2026-05-04 20:09 19.05066 -70.06571 13432 ft 315 kts 142°
2026-05-04 20:10 19.03401 -70.05087 12800 ft 312 kts 141°
2026-05-04 20:10 19.01757 -70.03621 12243 ft 307 kts 141°
2026-05-04 20:10 19.00119 -70.02162 11794 ft 308 kts 141°
2026-05-04 20:10 18.98488 -70.00709 11406 ft 308 kts 141°
2026-05-04 20:11 18.96859 -69.99254 11156 ft 304 kts 141°
2026-05-04 20:11 18.95251 -69.97817 10842 ft 302 kts 141°
2026-05-04 20:11 18.93673 -69.96410 10716 ft 290 kts 141°
2026-05-04 20:11 18.92165 -69.95066 10444 ft 279 kts 141°
2026-05-04 20:12 18.90645 -69.93866 10041 ft 272 kts 149°
2026-05-04 20:12 18.89038 -69.92794 9643 ft 267 kts 148°
2026-05-04 20:12 18.87502 -69.91760 9287 ft 264 kts 148°
2026-05-04 20:12 18.85961 -69.90717 8937 ft 262 kts 148°
2026-05-04 20:13 18.84422 -69.89675 8662 ft 262 kts 149°
2026-05-04 20:13 18.82889 -69.88638 8312 ft 263 kts 148°
2026-05-04 20:13 18.81350 -69.87599 8089 ft 261 kts 148°
2026-05-04 20:13 18.79834 -69.86577 7888 ft 256 kts 149°
2026-05-04 20:14 18.78342 -69.85570 7632 ft 252 kts 147°
2026-05-04 20:14 18.76881 -69.84584 7181 ft 248 kts 147°
2026-05-04 20:14 18.75431 -69.83604 6724 ft 247 kts 146°
2026-05-04 20:14 18.73997 -69.82635 6337 ft 242 kts 146°
2026-05-04 20:15 18.72590 -69.81686 6001 ft 237 kts 147°
2026-05-04 20:15 18.71224 -69.80765 5700 ft 229 kts 146°
2026-05-04 20:15 18.69913 -69.79882 5406 ft 218 kts 146°
2026-05-04 20:15 18.68656 -69.79034 5134 ft 211 kts 146°
2026-05-04 20:16 18.67438 -69.78213 4856 ft 205 kts 147°
2026-05-04 20:16 18.66255 -69.77418 4589 ft 198 kts 147°
2026-05-04 20:16 18.65115 -69.76650 4356 ft 190 kts 147°
2026-05-04 20:16 18.64037 -69.75922 4115 ft 184 kts 147°
2026-05-04 20:17 18.62973 -69.75206 3861 ft 178 kts 146°
2026-05-04 20:17 18.61945 -69.74514 3638 ft 173 kts 147°
2026-05-04 20:17 18.60946 -69.73842 3374 ft 168 kts 147°
2026-05-04 20:17 18.59943 -69.73219 3105 ft 166 kts 157°
2026-05-04 20:18 18.58859 -69.72812 2866 ft 165 kts 161°
2026-05-04 20:18 18.57787 -69.72415 2613 ft 162 kts 160°
2026-05-04 20:18 18.56727 -69.72021 2385 ft 159 kts 161°
2026-05-04 20:18 18.55715 -69.71645 2143 ft 150 kts 161°
2026-05-04 20:19 18.54752 -69.71285 2016 ft 147 kts 161°
2026-05-04 20:19 18.53801 -69.70929 1979 ft 141 kts 161°
2026-05-04 20:19 18.52884 -69.70588 1820 ft 141 kts 161°
2026-05-04 20:19 18.51967 -69.70247 1638 ft 139 kts 162°
2026-05-04 20:20 18.51059 -69.69910 1428 ft 138 kts 161°
2026-05-04 20:20 18.50156 -69.69574 1241 ft 138 kts 161°
2026-05-04 20:20 18.49254 -69.69237 1036 ft 137 kts 161°
2026-05-04 20:20 18.48360 -69.68882 865 ft 136 kts 162°
2026-05-04 20:21 18.47460 -69.68547 718 ft 137 kts 161°
2026-05-04 20:21 18.46558 -69.68216 571 ft 137 kts 161°
2026-05-04 20:21 18.44755 -69.67555 201 ft 137 kts 161°
2026-05-04 20:22 18.43861 -69.67219 72 ft 130 kts 162°
2026-05-04 20:22 18.43131 -69.66952 64 ft 87 kts 161°
2026-05-04 20:22 18.42785 -69.66827 62 ft 36 kts 161°
2026-05-04 20:22 18.42557 -69.66743 68 ft 35 kts 161°
2026-05-04 20:23 18.42357 -69.66669 59 ft 17 kts 159°
2026-05-04 20:23 18.42257 -69.66636 65 ft 12 kts 176°
2026-05-04 20:23 18.42215 -69.66672 61 ft 6 kts 246°
2026-05-04 20:23 18.42216 -69.66723 65 ft 7 kts 291°
2026-05-04 20:24 18.42236 -69.66762 63 ft 7 kts 297°
2026-05-04 20:24 18.42268 -69.66822 60 ft 11 kts 309°
2026-05-04 20:24 18.42346 -69.66864 64 ft 14 kts 343°
2026-05-04 20:24 18.42450 -69.66900 64 ft 17 kts 341°
2026-05-04 20:25 18.42567 -69.66943 61 ft 19 kts 340°
2026-05-04 20:25 18.42697 -69.66991 68 ft 21 kts 341°
2026-05-04 20:25 18.42840 -69.67044 67 ft 23 kts 340°
2026-05-04 20:25 18.42927 -69.67077 69 ft 9 kts 332°
2026-05-04 20:26 18.42951 -69.67152 67 ft 15 kts 276°
2026-05-04 20:26 18.42962 -69.67266 62 ft 15 kts 275°
2026-05-04 20:26 18.42972 -69.67353 56 ft 12 kts 284°
2026-05-04 20:26 18.43028 -69.67422 63 ft 14 kts 327°
2026-05-04 20:27 18.43125 -69.67462 60 ft 16 kts 341°
2026-05-04 20:27 18.43219 -69.67497 61 ft 12 kts 341°
2026-05-04 20:27 18.43292 -69.67524 64 ft 8 kts 341°
2026-05-04 20:27 18.43329 -69.67566 64 ft 8 kts 279°
2026-05-04 20:28 18.43300 -69.67610 63 ft 8 kts 216°
2026-05-04 20:28 18.43260 -69.67641 61 ft 5 kts 217°
2026-05-04 20:28 18.43252 -69.67648 63 ft 0 kts 217°
2026-05-04 20:28 18.43250 -69.67649 63 ft 2 kts 217°
2026-05-04 20:29 18.43243 -69.67655 65 ft 2 kts 217°